Regional Weather Roundup
Issued by NWS Northern Indiana

Home | Current Version | Previous Version | Text Only | Print | Product List | Glossary Off
Versions: 1 2 3 4 5 6 7 8 9 10 11 12 13 14 15 16 17 18 19 20 21 22 23 24 25 26 27 28 29 30 31 32 33 34 35 36 37 38 39 40 41 42 43 44 45 46 47 48 49 50

000
ASUS43 KIWX 180800
RWRIWX

KIWX WEATHER ROUNDUP
NATIONAL WEATHER SERVICE NORTHERN INDIANA
400 AM EDT FRI APR 18 2014

NOTE: "FAIR" INDICATES FEW OR NO CLOUDS BELOW 12,000 FEET WITH NO
SIGNIFICANT WEATHER AND/OR OBSTRUCTIONS TO VISIBILITY.

* THESE STATIONS ARE NOT UNDER NWS QUALITY CONTROL. THEY ALSO MAY NOT
  REPORT WEATHER SUCH AS PRECIPITATION OR FOG.

INZ001>027-180900-
NORTHERN INDIANA

CITY           SKY/WX    TMP DP  RH WIND       PRES   REMARKS
GARY*          CLOUDY    47  40  77 CALM      30.25S
VALPARAISO     CLOUDY    48  41  76 N3        30.24F
SOUTH BEND     LGT RAIN  47  41  80 E5        30.25
GOSHEN         CLOUDY    50  42  74 N3        30.23F
MONTICELLO*    CLOUDY    46  41  83 NW5       30.24F
ANGOLA*        PTCLDY    48  43  81 CALM      30.24S
FORT WAYNE     MOCLDY    45  35  68 W5        30.25S
PERU/GRISSOM   CLOUDY    51  40  67 NW2       30.24S

$$
INZ028>050-180900-
CENTRAL INDIANA

CITY           SKY/WX    TMP DP  RH WIND       PRES   REMARKS
LAFAYETTE      CLOUDY    46  40  79 CALM      30.25S
KOKOMO*        MOCLDY    45  37  76 CALM      30.24F
MUNCIE*        PTCLDY    43  35  73 S3        30.24F
INDIANAPOLIS   PTCLDY    46  35  65 CALM      30.24F

$$
MIZ043>046-050>051-056>058-064>065-071>073-077>080-180900-
SOUTHWEST LOWER MICHIGAN

CITY           SKY/WX    TMP DP  RH WIND       PRES   REMARKS
BATTLE CREEK   LGT RAIN  46  43  89 CALM      30.25S FOG
BENTON HARBOR  CLOUDY    44  40  85 E3        30.24F
COLDWATER*     CLOUDY    48  39  72 CALM      30.23S
HILLSDALE*     CLOUDY    49  37  62 CALM      30.23R
HOLLAND        CLOUDY    45  38  76 CALM      30.25F
GRAND RAPIDS   CLOUDY    47  37  68 NW3       30.25S
KALAMAZOO      LGT RAIN  47  42  83 CALM      30.24F
STURGIS*       CLOUDY    48  39  71 CALM      30.23F
THREE RIVERS*  CLOUDY    48  41  76 CALM      30.24F

$$
OHZ001>008-015>018-024>025-180900-
NORTHWEST OHIO

CITY           SKY/WX    TMP DP  RH WIND       PRES   REMARKS
DEFIANCE       CLOUDY    46  36  68 CALM      30.24S
FINDLAY        PTCLDY    47  35  63 CALM      30.22F
TOLEDO EXPRESS MOCLDY    48  36  63 SW3       30.22F
TOLEDO METCALF PTCLDY    42  34  73 S6        30.24S
LIMA           CLEAR     50  34  54 SW7       30.24F

$$
&&



USA.gov is the U.S. government's official web portal to all federal, state and local government web resources and services.